�������C�����ː����j�^�v���󋵏��
Date,Time,Cs137(Bq/L),Cs134(Bq/L),�S��(Bq/L)
2019/01/23,00:00,0.39,ND,19
2019/01/23,00:10,0.40,ND,19
2019/01/23,00:20,0.37,ND,18
2019/01/23,00:30,0.39,ND,16
2019/01/23,00:40,0.39,ND,14
2019/01/23,00:50,0.39,ND,14
2019/01/23,01:00,0.38,ND,11
2019/01/23,01:10,0.35,ND,9.2
2019/01/23,01:20,0.34,ND,10
2019/01/23,01:30,0.33,ND,11
2019/01/23,01:40,0.31,ND,10
2019/01/23,01:50,0.33,ND,12
2019/01/23,02:00,0.33,ND,14
2019/01/23,02:10,0.36,ND,18
2019/01/23,02:20,0.34,ND,18
2019/01/23,02:30,0.33,ND,18
2019/01/23,02:40,0.33,ND,17
2019/01/23,02:50,0.29,ND,17
2019/01/23,03:00,0.30,ND,16
2019/01/23,03:10,0.30,ND,14
2019/01/23,03:20,0.30,ND,12
2019/01/23,03:30,0.28,ND,13
2019/01/23,03:40,0.27,ND,15
2019/01/23,03:50,0.28,ND,14
2019/01/23,04:00,0.26,ND,14
2019/01/23,04:10,0.26,ND,12
2019/01/23,04:20,0.26,ND,14
2019/01/23,04:30,0.26,ND,13
2019/01/23,04:40,0.24,ND,14
2019/01/23,04:50,0.24,ND,15
2019/01/23,05:00,0.26,ND,16
2019/01/23,05:10,0.24,ND,19
2019/01/23,05:20,0.24,ND,18
2019/01/23,05:30,0.24,ND,18
2019/01/23,05:40,0.22,ND,17
2019/01/23,05:50,0.23,ND,16
2019/01/23,06:00,0.21,ND,16
2019/01/23,06:10,0.21,ND,15
2019/01/23,06:20,0.22,ND,16
2019/01/23,06:30,0.21,ND,18
2019/01/23,06:40,0.24,ND,16
2019/01/23,06:50,0.24,ND,20
2019/01/23,07:00,0.25,ND,19
2019/01/23,07:10,0.27,ND,20
2019/01/23,07:20,0.27,ND,20
2019/01/23,07:30,0.28,ND,18
2019/01/23,07:40,0.29,ND,18
2019/01/23,07:50,0.24,ND,17
2019/01/23,08:00,0.24,ND,17
2019/01/23,08:10,0.22,ND,15
2019/01/23,08:20,0.25,ND,14
2019/01/23,08:30,0.26,ND,16
2019/01/23,08:40,0.28,ND,16
2019/01/23,08:50,0.23,ND,14
2019/01/23,09:00,0.22,ND,13
2019/01/23,09:10,0.23,ND,14
2019/01/23,09:20,0.24,ND,14
2019/01/23,09:30,0.23,ND,15
2019/01/23,09:40,0.22,ND,16
2019/01/23,09:50,0.21,ND,20
2019/01/23,10:00,0.21,ND,19
2019/01/23,10:10,0.23,ND,20
2019/01/23,10:20,0.24,ND,23
2019/01/23,10:30,0.23,ND,21
2019/01/23,10:40,0.23,ND,20
2019/01/23,10:50,0.25,ND,17
2019/01/23,11:00,0.26,ND,17
2019/01/23,11:10,0.25,ND,16
2019/01/23,11:20,0.25,ND,13
2019/01/23,11:30,0.25,ND,11
2019/01/23,11:40,0.26,ND,12
2019/01/23,11:50,0.25,ND,13
2019/01/23,12:00,0.29,ND,13
2019/01/23,12:10,0.25,ND,13
2019/01/23,12:20,0.23,ND,13
2019/01/23,12:30,0.25,ND,16
2019/01/23,12:40,0.32,ND,18
2019/01/23,12:50,0.31,ND,18
2019/01/23,13:00,0.31,ND,18
2019/01/23,13:10,0.31,ND,17
2019/01/23,13:20,0.33,ND,18
2019/01/23,13:30,0.32,ND,16
2019/01/23,13:40,0.29,ND,17
2019/01/23,13:50,0.30,ND,16
2019/01/23,14:00,0.30,ND,17
2019/01/23,14:10,0.30,ND,17
2019/01/23,14:20,0.29,ND,14
2019/01/23,14:30,0.29,ND,16
2019/01/23,14:40,0.31,ND,15
2019/01/23,14:50,0.30,ND,14
2019/01/23,15:00,0.28,ND,16
2019/01/23,15:10,0.27,ND,17
2019/01/23,15:20,0.27,ND,19
2019/01/23,15:30,0.23,ND,18
2019/01/23,15:40,0.21,ND,19
2019/01/23,15:50,0.21,ND,18
2019/01/23,16:00,0.22,ND,15
2019/01/23,16:10,0.23,ND,15
2019/01/23,16:20,0.23,ND,16
2019/01/23,16:30,0.28,ND,17
2019/01/23,16:40,0.25,ND,15
2019/01/23,16:50,0.29,ND,18
2019/01/23,17:00,0.30,ND,18
2019/01/23,17:10,0.30,ND,20
2019/01/23,17:20,0.30,ND,18
2019/01/23,17:30,0.29,ND,16
2019/01/23,17:40,0.29,ND,14
2019/01/23,17:50,0.29,ND,16
2019/01/23,18:00,0.29,ND,15
2019/01/23,18:10,0.29,ND,13
2019/01/23,18:20,0.30,ND,13
2019/01/23,18:30,0.30,ND,16
2019/01/23,18:40,0.26,ND,18
2019/01/23,18:50,0.27,ND,15
2019/01/23,19:00,0.27,ND,18
2019/01/23,19:10,0.26,ND,19
2019/01/23,19:20,0.32,ND,20
2019/01/23,19:30,0.32,ND,17
2019/01/23,19:40,0.27,ND,17
2019/01/23,19:50,0.31,ND,19
2019/01/23,20:00,0.30,ND,18
2019/01/23,20:10,0.31,ND,17
2019/01/23,20:20,0.32,ND,18
2019/01/23,20:30,0.33,ND,22
2019/01/23,20:40,0.33,ND,23
2019/01/23,20:50,0.34,ND,23
2019/01/23,21:00,0.34,ND,20
2019/01/23,21:10,0.35,ND,21
2019/01/23,21:20,0.34,ND,17
2019/01/23,21:30,0.33,ND,15
2019/01/23,21:40,0.32,ND,14
2019/01/23,21:50,0.30,ND,12
2019/01/23,22:00,0.30,ND,15
2019/01/23,22:10,0.29,ND,16
2019/01/23,22:20,0.28,ND,17
2019/01/23,22:30,0.28,ND,16
2019/01/23,22:40,0.29,ND,18
2019/01/23,22:50,0.28,ND,17
2019/01/23,23:00,0.29,ND,18
2019/01/23,23:10,0.27,ND,17
2019/01/23,23:20,0.29,ND,19
2019/01/23,23:30,0.30,ND,20
2019/01/23,23:40,0.25,ND,20
2019/01/23,23:50,0.24,ND,21
